Location: Arcadia
(34.1397°N, 118.0353°W)
Time: 23:52:53
(UTC+00:00)

Cosmos 2151 - Pass Details

Date: 08 September 2024
Orbit: 567 x 585 km, 82.5° (Epoch: 13 October)

Event Time Altitude Azimuth Distance (km) Brightness Sun altitude
Rises 12:42:16 0° 357° (N) 2,771 6.6 -10.7°
Reaches altitude 10° 12:44:28 10° 0° (N) 1,871 5.7 -10.3°
Maximum altitude 12:48:33 64° 82° (E) 632 3.4 -9.5°
Drops below altitude 10° 12:52:38 10° 165° (SSE) 1,864 5.6 -8.6°
Sets 12:54:49 0° 168° (SSE) 2,759 6.4 -8.2°
